Dillingham, AK

3:58 AM AKDT on July 29, 2017 (GMT -0800)
Dillingham

Weather History for PADL - April, 2014

Change the Weather History Date:

Sunday, April 6, 2014

  Actual Average Record
Temperature  
Mean Temperature 34 °F -  
Max Temperature 39 °F 33 °F 46 °F (2016)
Min Temperature 30 °F 23 °F -3 °F (1960)
Degree Days  
Heating Degree Days 30    
Moisture  
Dew Point 31 °F    
Average Humidity 88    
Maximum Humidity 100    
Minimum Humidity 65    
Precipitation  
Precipitation 0.00 in - - ()
Sea Level Pressure  
Sea Level Pressure 29.54 in    
Wind  
Wind Speed 3 mph (North)    
Max Wind Speed 13 mph    
Max Gust Speed 18 mph    
Visibility 12 miles    
Events Snow    
Averages and records for this station are not official NWS values.
T = Trace of Precipitation, MM = Missing Value Source: NWS Daily Summary

Daily Weather History Graph

Daily Weather History Graph

Search for Another Location

Airport or City:

Trip Planner

Search our weather history database for the weather conditions in past years. The results will help you decide how hot, cold, wet, or windy it might be!

Date:

Astronomy

Apr. 06, 2014 Rise Set
Actual Time 7:45 AM AKDT 9:28 PM AKDT
Civil Twilight 7:02 AM AKDT 10:11 PM AKDT
Nautical Twilight 6:09 AM AKDT 11:05 PM AKDT
Astronomical Twilight 5:05 AM AKDT 12:10 AM AKDT
Moon 12:11 PM AKDT (4/6) 4:18 AM AKDT (4/6)
Length of Visible Light 15h 08m
Length of Day
13h 43m
Waxing Crescent, 45% of the Moon is Illuminated
Apr 6
Waxing Crescent
Apr 7
First Quarter
Apr 14
Full
Apr 21
Last Quarter
Apr 28
New

Hourly Weather History & Observations

Time (AKDT) Temp. Windchill Dew Point Humidity Pressure Visibility Wind Dir Wind Speed Gust Speed Precip Events Conditions
12:16 AM 35.6 °F - 35.6 °F 100% 29.45 in 10.0 mi Calm Calm - N/A   Overcast
12:36 AM 35.6 °F - 33.8 °F 93% 29.46 in 10.0 mi Calm Calm - N/A   Overcast
12:56 AM 35.6 °F - 33.8 °F 93% 29.46 in 10.0 mi Calm Calm - N/A   Overcast
1:16 AM 35.6 °F - 35.6 °F 100% 29.47 in 10.0 mi Calm Calm - N/A   Overcast
1:36 AM 35.6 °F - 33.8 °F 93% 29.47 in 10.0 mi Calm Calm - N/A   Mostly Cloudy
1:56 AM 35.6 °F - 33.8 °F 93% 29.47 in 10.0 mi Calm Calm - N/A   Mostly Cloudy
2:16 AM 35.6 °F - 33.8 °F 93% 29.48 in 10.0 mi Calm Calm - N/A   Overcast
2:36 AM 33.8 °F - 33.8 °F 100% 29.48 in 10.0 mi Calm Calm - N/A   Overcast
2:56 AM 33.8 °F - 33.8 °F 100% 29.48 in 10.0 mi Calm Calm - N/A   Overcast
3:16 AM 33.8 °F - 32.0 °F 93% 29.48 in 10.0 mi Calm Calm - N/A   Overcast
3:36 AM 33.8 °F - 32.0 °F 93% 29.49 in 10.0 mi Calm Calm - N/A   Overcast
3:56 AM 33.8 °F - 33.8 °F 100% 29.49 in 10.0 mi Calm Calm - N/A   Overcast
4:16 AM 33.8 °F - 33.8 °F 100% 29.49 in 10.0 mi Calm Calm - N/A   Overcast
4:36 AM 32.0 °F - 32.0 °F 100% 29.50 in 10.0 mi Calm Calm - N/A   Overcast
4:56 AM 32.0 °F - 32.0 °F 100% 29.50 in 10.0 mi Calm Calm - N/A   Overcast
5:16 AM 33.8 °F - 32.0 °F 93% 29.50 in 10.0 mi Calm Calm - N/A   Overcast
5:36 AM 33.8 °F - 33.8 °F 100% 29.51 in 10.0 mi Calm Calm - N/A   Overcast
5:56 AM 33.8 °F 30.8 °F 33.8 °F 100% 29.51 in 10.0 mi NW 3.5 mph - N/A   Overcast
6:16 AM 35.6 °F - 33.8 °F 93% 29.51 in 10.0 mi Calm Calm - N/A   Overcast
6:36 AM 35.6 °F 32.8 °F 33.8 °F 93% 29.51 in 10.0 mi NNW 3.5 mph - N/A   Overcast
6:56 AM 35.6 °F 32.8 °F 33.8 °F 93% 29.52 in 10.0 mi NW 3.5 mph - N/A   Overcast
7:16 AM 35.6 °F - 33.8 °F 93% 29.52 in 10.0 mi Calm Calm - N/A   Overcast
7:36 AM 33.8 °F - 33.8 °F 100% 29.52 in 10.0 mi Calm Calm - N/A   Overcast
7:45 AM 33.8 °F 29.6 °F 33.8 °F 100% 29.52 in 15.0 mi North 4.6 mph - N/A   Overcast
8:45 AM 33.8 °F 29.6 °F 32.0 °F 93% 29.53 in 15.0 mi NNW 4.6 mph - N/A Snow Light Snow Showers
9:45 AM 35.6 °F 29.9 °F 30.2 °F 81% 29.55 in 15.0 mi North 6.9 mph - N/A   Mostly Cloudy
10:30 AM 35.6 °F 30.7 °F 30.2 °F 81% 29.56 in 15.0 mi North 5.8 mph - N/A   Mostly Cloudy
10:54 AM 35.6 °F 30.7 °F 30.2 °F 81% 29.57 in 15.0 mi North 5.8 mph - N/A   Mostly Cloudy
12:50 PM 39.2 °F 35.0 °F 33.8 °F 81% 29.58 in 15.0 mi NNE 5.8 mph - N/A   Light Drizzle
1:50 PM 37.4 °F - 33.8 °F 87% 29.59 in 15.0 mi Calm Calm - N/A   Overcast
2:51 PM 37.4 °F 31.4 °F 33.8 °F 87% 29.59 in 20.0 mi NNE 8.1 mph - N/A   Mostly Cloudy
3:48 PM 33.8 °F 27.7 °F 33.8 °F 100% 29.59 in 20.0 mi NE 6.9 mph - N/A   Mostly Cloudy
4:45 PM 39.2 °F 35.0 °F 30.2 °F 70% 29.59 in 20.0 mi North 5.8 mph - N/A   Mostly Cloudy
5:45 PM 39.2 °F 34.2 °F 32.0 °F 75% 29.59 in 20.0 mi NNE 6.9 mph - N/A   Mostly Cloudy
6:45 PM 39.2 °F 33.0 °F 28.4 °F 65% 29.59 in 20.0 mi North 9.2 mph - N/A   Mostly Cloudy
7:45 PM 37.4 °F 30.3 °F 26.6 °F 65% 29.59 in 20.0 mi North 10.4 mph - N/A   Mostly Cloudy
8:45 PM 33.8 °F 25.3 °F 24.8 °F 70% 29.60 in 20.0 mi NNW 11.5 mph - N/A   Mostly Cloudy
9:36 PM 33.8 °F 27.7 °F 26.6 °F 75% 29.61 in 10.0 mi NNW 6.9 mph - N/A   Mostly Cloudy
9:56 PM 33.8 °F 24.8 °F 26.6 °F 75% 29.61 in 10.0 mi NNW 12.7 mph - N/A   Overcast
10:16 PM 32.0 °F 22.5 °F 26.6 °F 80% 29.62 in 10.0 mi North 12.7 mph - N/A   Overcast
10:36 PM 32.0 °F 23.0 °F 28.4 °F 87% 29.62 in 10.0 mi NNW 11.5 mph 18.4 mph N/A   Overcast
10:56 PM 30.2 °F 20.8 °F 26.6 °F 86% 29.62 in 10.0 mi NNW 11.5 mph - N/A   Overcast
11:16 PM 30.2 °F 20.2 °F 26.6 °F 86% 29.63 in 10.0 mi NNW 12.7 mph - N/A   Overcast
11:36 PM 30.2 °F 20.8 °F 24.8 °F 80% 29.63 in 10.0 mi North 11.5 mph - N/A   Overcast
11:56 PM 30.2 °F 21.3 °F 24.8 °F 80% 29.63 in 10.0 mi NNW 10.4 mph - N/A   Overcast